Dewpoint
51 54 56 56 57 59 60 60 68 71 71 71 71 71 70 71 69 69 68 67 67 67 65 67 67 70 70 70 70 71 70 71 70
53 53 53 53 56 60 60 62 63 70 71 71 71 71 71 70 70 70 67 68 68 67 68 68 67 68 69 69 71 70 70 71 69
56 58 59 61 63 62 62 62 64 69 71 71 70 70 70 70 69 69 69 70 68 68 68 66 67 69 69 69 70 70 69 70 69
57 58 60 62 64 66 67 67 64 68 70 70 70 70 70 70 70 69 69 69 70 68 69 68 67 68 66 63 66 70 70 70 69
56 58 59 60 62 64 65 67 68 68 69 70 70 70 69 69 69 69 69 69 69 70 69 69 67 66 66 63 62 67 69 69 68
55 55 58 60 61 61 63 64 67 68 69 68 69 70 70 69 69 69 68 68 68 69 70 67 68 67 66 63 60 66 69 69 69
53 54 53 54 55 60 62 63 63 65 66 69 69 68 69 69 68 68 68 68 67 67 69 69 68 67 66 64 63 70 70 70 69
49 49 50 51 52 54 54 54 57 58 64 66 66 67 68 68 69 69 68 68 68 67 67 69 69 68 69 70 70 69 70 71 70
48 48 49 50 50 50 52 53 53 56 58 58 65 65 66 68 70 69 69 68 68 69 67 69 69 68 68 69 69 69 69 71 70
48 49 48 47 47 48 52 53 54 54 55 56 56 60 65 66 67 67 68 69 68 67 68 68 69 68 68 67 68 69 69 68 70
44 45 45 46 49 50 51 52 52 53 54 55 57 59 60 63 66 67 67 68 68 68 68 67 69 69 69 69 68 68 68 67 66
44 45 46 48 50 50 52 54 55 56 56 56 56 56 58 59 64 67 68 68 69 68 69 68 68 70 69 69 69 69 69 68 66
45 46 47 47 48 53 53 53 54 55 56 57 57 57 57 61 62 65 67 66 65 66 68 67 68 69 70 70 69 69 68 67 68
47 48 51 53 53 52 52 55 55 54 56 57 58 59 59 60 61 61 65 66 65 67 66 66 67 69 69 69 70 70 69 67 68
51 51 52 53 53 55 56 57 58 57 57 58 60 59 58 59 61 62 62 65 65 63 62 62 64 63 62 61 61 65 68 68 66
49 51 52 53 54 54 55 57 58 57 58 60 60 60 60 60 60 61 61 62 64 64 61 58 55 56 56 60 61 62 61 62 64
52 52 53 54 56 56 56 58 58 58 59 60 60 60 60 60 60 59 60 62 63 64 64 62 60 58 57 58 60 60 61 61 65
53 55 56 56 56 57 58 58 58 59 59 60 60 60 60 60 60 59 59 59 60 64 64 63 62 61 59 57 59 58 60 62 62
55 55 56 57 57 57 58 58 59 60 60 61 60 60 60 60 59 58 58 58 58 60 64 63 62 61 61 61 59 59 61 58 59
55 56 57 57 57 58 58 59 59 60 60 61 60 60 60 61 61 60 58 57 57 57 59 60 59 59 59 59 61 59 60 58 58
Wind_Speed
24 25 22 24 23 22 25 23 23 23 23 20 20 19 19 18 17 14 14 15 15 17 18 16 8 11 15 17 13 12 9 8 9
14 10 6 15 20 23 21 21 22 25 24 22 22 21 19 19 18 16 15 14 15 17 14 11 10 4 17 18 15 14 12 12 13
18 17 18 21 19 11 17 22 22 23 25 26 23 22 20 18 19 17 14 11 16 18 14 13 14 10 12 10 16 15 15 14 13
18 18 19 20 19 20 21 13 7 19 24 22 22 21 21 18 18 17 15 16 13 16 11 17 15 21 22 16 10 15 14 14 11
16 19 18 19 19 18 19 19 21 10 8 17 19 18 19 20 18 18 17 16 17 14 13 14 20 21 23 18 16 13 14 12 11
14 15 17 17 18 18 18 18 16 15 14 12 9 10 17 19 20 22 20 17 17 16 13 19 18 17 17 19 19 16 16 14 14
13 14 12 13 13 13 15 17 16 14 14 12 12 12 5 14 18 22 22 21 21 21 17 18 19 21 20 20 18 17 15 14 17
12 12 10 10 9 9 9 11 13 14 11 9 11 14 11 7 8 17 19 20 21 23 21 20 20 20 19 20 18 17 17 17 20
12 9 8 6 6 7 4 4 7 9 12 16 14 10 12 14 10 9 17 19 20 21 24 21 22 23 23 21 20 21 23 20 20
11 8 7 4 5 8 5 4 6 8 10 13 16 17 15 14 15 14 13 16 17 20 20 21 22 23 22 24 22 22 26 27 19
11 8 7 7 7 8 7 6 8 9 10 11 12 15 17 18 16 15 15 15 19 20 20 22 23 23 24 24 23 26 27 25 20
11 10 10 8 7 8 8 7 9 9 10 11 12 14 15 18 17 15 14 15 16 20 20 22 22 21 24 26 26 27 29 26 21
8 9 10 12 15 12 11 15 14 13 13 12 13 14 16 15 15 16 15 16 16 15 18 23 23 23 22 27 29 28 29 27 22
11 10 14 13 14 12 14 10 11 13 12 13 15 15 17 18 18 18 15 15 16 13 13 13 12 16 20 23 22 23 28 28 21
17 18 16 14 15 15 18 17 12 13 15 16 13 14 17 20 20 17 15 15 17 13 10 7 5 1 8 7 14 21 18 29 32
16 15 17 16 18 18 16 16 17 20 19 15 17 18 19 18 20 19 16 17 16 17 18 19 18 11 20 14 7 19 22 23 34
16 17 17 15 18 19 20 18 20 21 18 19 19 20 19 18 19 23 17 18 17 19 19 17 14 16 15 18 15 16 24 15 21
15 16 16 17 18 17 19 20 23 23 22 19 19 19 18 17 18 20 17 18 19 20 22 22 19 20 22 16 19 16 15 18 15
14 17 17 16 18 20 21 22 23 23 20 19 20 19 17 15 17 18 16 17 19 24 31 30 33 27 23 19 22 12 24 24 9
18 17 17 18 22 22 22 23 22 22 22 19 19 19 17 16 18 19 19 18 18 18 14 22 24 32 32 31 23 34 33 28 16
Wind_Direction
157 153 173 175 183 179 170 170 158 164 168 172 175 179 189 197 204 207 206 209 203 202 206 217 229 227 210 201 199 215 231 244 243
109 127 192 195 168 178 179 179 177 169 173 176 178 184 188 196 200 201 214 219 218 213 203 173 195 279 232 217 207 207 220 229 241
71 63 57 65 60 40 197 185 187 171 174 178 181 183 191 196 201 207 210 225 220 224 204 180 178 268 247 238 223 217 220 228 235
53 53 55 49 50 51 48 56 210 176 177 175 181 186 185 190 198 207 213 224 247 226 212 166 182 194 201 228 242 232 218 211 227
52 44 51 51 42 42 52 50 39 27 187 186 187 187 182 189 195 200 214 215 231 245 209 182 183 200 218 224 234 246 210 220 232
84 57 47 46 41 37 36 45 47 34 37 40 19 231 198 192 193 195 204 212 219 238 209 191 195 203 224 221 236 243 222 216 233
96 92 68 55 41 37 33 24 26 34 28 25 25 11 314 211 208 200 203 203 207 219 230 196 198 202 212 230 228 229 219 219 230
101 86 70 57 32 22 40 21 7 6 6 24 12 356 357 325 309 233 214 208 205 210 219 219 211 213 210 215 226 233 226 220 228
127 118 98 61 22 347 340 25 350 355 11 359 351 348 338 332 334 324 250 224 217 207 211 217 215 217 222 222 223 231 228 216 221
138 113 93 50 336 311 331 345 15 355 348 344 335 325 320 316 312 318 287 268 244 236 215 213 215 217 216 225 229 225 227 229 220
48 35 18 351 356 358 350 340 321 305 304 308 309 312 311 305 297 289 299 282 260 249 239 230 217 217 217 219 226 228 235 236 230
17 2 351 345 329 303 293 289 287 277 268 271 287 297 298 300 304 283 288 288 278 264 247 241 233 216 216 219 225 222 225 230 232
341 328 315 307 303 313 308 293 275 264 266 262 263 270 281 286 300 300 277 278 287 287 284 263 240 232 220 217 223 223 223 221 223
320 331 351 359 343 331 321 316 312 313 301 286 276 275 276 280 279 280 278 266 274 269 274 271 281 269 257 242 227 225 225 221 216
358 345 340 344 340 343 340 327 324 311 297 291 268 279 285 283 275 269 272 264 267 252 230 236 246 107 293 339 355 341 279 227 221
339 341 345 345 333 320 315 305 303 296 289 291 291 282 272 275 277 269 258 262 251 250 247 242 246 236 247 240 225 303 310 322 265
348 334 321 325 324 319 311 313 308 296 290 288 283 281 275 267 270 271 256 252 252 245 253 250 230 228 226 248 254 216 264 297 301
336 329 333 322 316 316 311 314 312 303 293 284 283 276 270 264 266 269 266 255 250 236 240 235 243 235 240 214 215 219 231 237 263
339 324 320 324 318 315 311 311 305 304 295 285 284 275 269 261 264 266 265 270 258 243 231 233 232 227 222 231 233 221 197 216 227
323 318 321 325 316 311 307 303 299 305 306 292 283 273 263 261 262 265 268 270 273 280 269 244 243 227 220 220 223 229 239 244 204